Other Public Products
Issued by NWS Grand Forks, ND

Home | Current Version | Previous Version | Graphics & Text | Print | Product List | Glossary On
Versions: 1 2 3 4 5 6 7 8 9 10 11 12 13 14 15 16 17 18 19 20 21 22 23 24 25 26 27 28 29 30 31 32 33 34 35 36 37 38 39 40 41 42 43 44 45 46 47 48 49 50
000
FPUS83 KFGF 310510
OPUFGF
PRAIRIE TO PINES WEATHER ROUNDUP
NATIONAL WEATHER SERVICE EASTERN NORTH DAKOTA/GRAND FORKS ND
1200 AM CDT WED AUG 31 2016

 **SATELLITE DATA USED TO AUGMENT SKY COVER AT AUTOMATED STATIONS**
 *****  WEATHER ACROSS EASTERN NORTH DAKOTA  *****

CITY           SKY/WX    TMP DP  RH WIND       PRES   REMARKS
GRAND FORKS    CLEAR     58  52  80 CALM      30.21S
GRAND FORKS AF CLEAR     57  55  92 N3        30.22S
GRAND CITY NWS   N/A     61 N/A N/A N2          N/A
BUXTON           N/A     68  63  85 CALM        N/A
DEVILS LAKE    CLEAR     64  55  72 E8        30.24R
FARGO          CLEAR     58  55  90 NE3       30.20S
WAHPETON ARPT  CLEAR     61  52  72 CALM      30.21R
$$

 *****  WEATHER ACROSS CENTRAL AND WESTERN NORTH DAKOTA  *****

CITY           SKY/WX    TMP DP  RH WIND       PRES   REMARKS
JAMESTOWN      CLEAR     59  56  89 E7        30.22R
BISMARCK       CLEAR     65  54  67 NE8       30.19R
MINOT          PTCLDY    61  51  70 E8        30.20R
MINOT AFB      CLEAR     59  52  76 SE8       30.19R
GARRISON         N/A     64  55  72 E6        30.19R
WILLISTON      CLOUDY    73  46  38 E7        30.14S
DICKINSON      CLOUDY    64  55  72 SE12      30.13S
HETTINGER      CLEAR     70  59  68 SE8       30.17S
$$

 *****  OTHER OBSERVATIONS NORTHEAST NORTH DAKOTA  *****

CITY           SKY/WX    TMP DP  RH WIND       PRES   REMARKS
WALHALLA       NOT AVBL
LANGDON        FAIR      57  45  62 E9        30.26R
CAVALIER       FAIR      55  50  82 CALM      30.24R
GRAFTON        FAIR      59  52  77 CALM      30.24S
CANDO          NOT AVBL
FORT TOTTEN      N/A     65  53  65 E7        29.95S
ROLLA          FAIR      52  48  87 CALM      30.27R
RUGBY          FAIR      59  54  82 E7        30.22S
 ***** THE ABOVE OBSERVATIONS ARE NON NWS ARE NOT QUALITY
        CONTROLLED AND MAY MIS-REPORT RAIN FOR SNOW...
$$

 *****  OTHER OBSERVATIONS SOUTHEAST NORTH DAKOTA *****

CITY           SKY/WX    TMP DP  RH WIND       PRES   REMARKS
COOPERSTOWN    NOT AVBL
VALLEY CITY    FAIR      63  57  82 CALM      30.24S
OAKES            N/A    N/A N/A N/A MISG        N/A
GWINNER        FAIR      57  55  94 NE7       30.21S
SHEYENNE NWR     N/A     57  54  90 CALM      29.95S
BUFFALO          N/A     59  54  83 E3          N/A
WYNDMERE       NOT AVBL
 ***** THE ABOVE OBSERVATIONS ARE NON NWS ARE NOT QUALITY
       CONTROLLED AND MAY MIS-REPORT RAIN FOR SNOW...
$$

  *****  WEATHER ACROSS NORTHERN MINNESOTA  *****

CITY           SKY/WX    TMP DP  RH WIND       PRES   REMARKS
FLAG ISLAND    CLEAR     63  52  67 N5        30.20S
WARROAD        PTCLDY    54  48  82 N3        30.23S
ROSEAU         PTCLDY    54  48  82 CALM      30.23R
HALLOCK        PTCLDY    55  48  76 CALM      30.23R
THF RVR FALLS  PTCLDY    58  52  80 CALM      30.23S
HALSTAD          N/A     59  55  88 NE3         N/A
FOSSTON        CLEAR     52  48  87 CALM      30.23S
BAUDETTE       PTCLDY    51  50  96 W5        30.21S
WASKISH        CLEAR     52  50  93 CALM      30.22S
CROOKSTON      CLEAR     61  54  77 E3        30.22S
$$
  *****  WEATHER ACROSS CENTRAL AND WEST MINNESOTA  *****

CITY           SKY/WX    TMP DP  RH WIND       PRES   REMARKS
BEMIDJI        CLEAR     51  50  95 W3        30.22S
PARK RAPIDS    NOT AVBL
WADENA         CLEAR     57  55  94 CALM      30.22S
DETROIT LAKES  CLEAR     61  59  94 CALM      30.24R
MOORHEAD       CLEAR     61  54  77 CALM      30.21S
FERGUS FALLS   CLEAR     63  55  77 NE3       30.22F
ELBOW LAKE     FAIR      63  57  81 CALM      30.21S
MORRIS MN      CLOUDY    61  55  82 NE3       30.20S
STAPLES        CLEAR     57  55  94 CALM      30.22S
WHEATON        CLEAR     61  55  82 CALM      30.22S
$$
  *****  WEATHER ELSEWHERE ACROSS MINNESOTA  *****

CITY           SKY/WX    TMP DP  RH WIND       PRES   REMARKS
DULUTH         CLEAR     58  51  78 NW7       30.18S
INTRNTL FALLS  PTCLDY    44  43  96 CALM      30.20R
ELY            CLEAR     52  48  87 CALM      30.19R
CLOQUET        CLEAR     55  48  76 NW3       30.19S
BRAINERD       CLEAR     54  54 100 CALM      30.21S
HIBBING        CLEAR     46  46 100 CALM      30.20S
ALEXANDRIA     CLEAR     63  56  78 N6        30.23S
SAINT CLOUD    CLEAR     58  58 100 CALM      30.20R
MINNEAPOLIS    CLEAR     64  57  78 NW3       30.17R
$$

  *****  WEATHER ACROSS SOUTH DAKOTA  *****

CITY           SKY/WX    TMP DP  RH WIND       PRES   REMARKS
SIOUX FALLS    PTCLDY    64  62  93 CALM      30.20S
BROOKINGS      PTCLDY    61  59  93 CALM      30.22R
WATERTOWN      PTCLDY    64  58  80 CALM      30.22S
HURON          MOCLDY    69  62  78 SE8       30.19R
SISSETON         N/A     57  55  93 CALM      30.20S
ABERDEEN       CLOUDY    65  55  70 SE7       30.19R
MITCHELL       CLEAR     69  64  84 E6        30.19R
PIERRE         CLEAR     68  63  84 MISG      30.15R
MOBRIDGE       CLEAR     66  59  78 E8        30.15R
RAPID CITY     CLEAR     65  58  78 S6        30.21R
$$

  *****  SOME WEATHER IN NEARBY STATES *****

CITY           SKY/WX    TMP DP  RH WIND       PRES   REMARKS
GLASGOW MT     CLOUDY    73  56  54 E16       30.03S
GREAT FALLS MT CLOUDY    74  48  39 SE9       30.03S
CHEYENNE WY    CLEAR     56  52  86 SW7       30.39R
SCOTTSBLUFF NE CLEAR     63  57  81 E7        30.27R
OMAHA NE       CLOUDY    73  70  90 NW3       30.16S
DES MOINES IA  CLOUDY    75  69  81 N6        30.14S
DAVENPORT IA   CLOUDY    71  70  96 CALM      30.10R
CHICAGO IL     CLOUDY    72  67  84 NW6       30.06S
EAU CLAIRE WI  CLEAR     60  55  83 CALM      30.15R
LA CROSSE WI   CLOUDY    66  63  90 N6        30.14R
$$

  *****  SOME NATIONAL WEATHER *****

CITY           SKY/WX    TMP DP  RH WIND       PRES   REMARKS
LA GUARDIA NY  MOCLDY    77  70  79 S9        30.04F
RALEIGH NC     MOCLDY    78  69  73 SE6       30.04S
ATLANTA GA     CLEAR     78  69  73 E5        30.03S
NEW ORLEANS LA PTCLDY    85  76  74 E3        29.90S HX  94
OKLAHOMA CITY  CLOUDY    79  70  74 NW10      30.09R
ALBUQUERQUE NM PTCLDY    67  56  67 E22G30    30.28S
SALT LAKE CITY PTCLDY    79  38  22 SE7       30.02F
LOS ANGELES CA PTCLDY    72  63  73 VRB5      29.83R
BOISE ID       CLEAR     75  39  27 W7        29.89S
SEATTLE WA     PTCLDY    63  53  70 S5        30.00S
$$

*** WEATHER ACROSS MANITOBA...SASKATCHEWAN AND ONTARIO ***
                ***ONTARIO***

CITY           SKY/WX    TMP DP  RH WIND       PRES   REMARKS
GERALDTON      PTCLDY    57  54  88 NW7       30.07S
THUNDER BAY    CLEAR     54  52  94 W6        30.12R
SIOUX LOOKOUT  MOCLDY    57  54  88 N3        30.17R
TORONTO        CLOUDY    73  66  78 W8        29.97F
BIG TROUT LK   LGT RAIN  50  48  93 NW13G21   30.12S
PICKLE LAKE    NOT AVBL
DRYDEN         CLEAR     55  52  88 W5        30.19S
KENORA         CLEAR     57  50  77 N5        30.22S
$$
                *** MANITOBA***

CITY           SKY/WX    TMP DP  RH WIND       PRES   REMARKS
BRANDON        PTCLDY    55  50  82 E8        30.26R
DAUPHIN        CLEAR     48  46  93 W5        30.28R
ISLAND LAKE    LGT RAIN  54  52  94 N7        30.26S
PILOT MOUND      N/A     55  48  76 E8          N/A
THE PAS        CLOUDY    59  52  77 E5        30.31R
THOMPSON       CLEAR     41  39  93 CALM      30.32S
WINNIPEG       PTCLDY    55  50  82 NE7       30.25R
LYNN LAKE      MOCLDY    45  45 100 MISG      30.33R
CHURCHILL      PTCLDY    46  45  93 N10       30.31R
GILLAM         PTCLDY    50  45  81 N14       30.30R
$$
                ***SASKATCHEWAN***

CITY           SKY/WX    TMP DP  RH WIND       PRES   REMARKS
ESTEVAN        CLEAR     59  48  67 E8        30.18S
KINDERSLEY     PTCLDY    61  50  67 E17G26    30.10S
LLOYDMINSTER   CLEAR     57  50  77 E14       30.16S
PRINCE ALBERT  CLEAR     46  45  93 E6        30.26S
REGINA         CLEAR     64  50  59 E17G25    30.17R
YORKTON        CLEAR     52  48  87 E7        30.25R  C1F1C2F2C3F3C4F4C5F5C6F6C7F7C8F8C9F9CaFaCbFbCcFcCdFdCe!



USA.gov is the U.S. government's official web portal to all federal, state and local government web resources and services.